Weather in Kalvarija

Lithuania     54°24′50″N   23°13′33″E
temp.,
°C
wind,
m/s
gust,
m/s
humid.,
%
clouds,
%
prec.,
mm/h
press.,
hPa
HPBL,
m
27 february, sat
sat2701:00+2wnw7139276 0.0 1019381
04:00+2wnw6119336 0.0 1019323
07:00+1nw7149024 0.0 1021497
10:00+3nw712810 0.0 1023701
13:00+5nnw711710 0.0 10251026
16:00+5nw612720 0.0 1026859
19:00+2nw512790 0.0 1028347
22:000wnw511910 0.0 1029305
28 february, sun
sun2801:000wnw5109316 0.0 1030331
04:00+1wnw5119090 0.0 1028341
07:00+1w6108687 0.0 1027279
10:00+4wnw8137892 0.0 1026543
13:00+6wnw8127984 0.0 1026795
16:00+5nw61282100 0.0 1025637
19:00+3nw499187 0.0 1028233
22:00+2nw469372 0.0 1029191
1 march, mon
mon101:00+1wnw369645 0.0 1030130
04:00+1wnw48964 0.0 1030185
07:00+1wnw48954 0.0 1031195
10:00+6nw59790 0.0 1031435
13:00+8wnw59670 0.0 1031612
16:00+8w5107416 0.0 1029388
19:00+5w6157939 0.0 1029517
22:00+3wnw614893 0.0 1029455
2 march, tue
tue201:00+2wnw6119515 0.0 1030334
04:00+2wnw599673 0.0 1029274
07:00+1w479672 0.0 1030185
10:00+5wnw46826 0.0 1030292
13:00+8w57733 0.0 1029486
16:00+7wnw58800 0.0 1028575
19:00+5wnw698629 0.0 1029520
22:00+2nw379366 0.0 1030251
3 march, wed
wed301:00+1nw359469 0.0 1030229
04:000wnw239586 0.0 102970
07:00+1w239486 0.0 1029198
10:00+3wsw228493 0.0 1029347
13:00+6wsw136878 0.0 1027578
16:00+5w34740 0.0 1025396
19:00+2w23929 0.0 102479
22:00+1ssw349212 0.0 102277